User: anonymous   Login
Location: Bessat
(45.8735°N, 1.9924°E)
Time: 23:29:16
(UTC+00:00)
Language:

SPOT 5 - Orbit

View from above orbital plane
View from above orbital plane
View from above satellite
View from above satellite

Ground track
Ground track

The orbit data is extracted from the following two-line orbital elements,

1 27421U 02021A   21204.17761162 -.00000002  00000-0  10549-4 0  9997
2 27421  98.2280 274.1425 0135902  53.4330 307.9284 14.52109277  2913
Epoch (UTC): 23 July 2021 04:15:45
Eccentricity: 0.0135902
inclination: 98.2280°
perigee height: 622 km
apogee height: 815 km
right ascension of ascending node: 274.1425°
argument of perigee: 53.4330°
revolutions per day: 14.52109277
mean anomaly at epoch: 307.9284°
orbit number at epoch: 291

The dashed part of the orbit path shows where the satellite is in the earth's shadow,  

DLR